Flight Information

DEPARTURE
LA VERNE, CA
Elevation:
1013
Runways:
8L/26R - 3661x75 - ASPH-G
8R/26L - 4840x75 - ASPH-G
Active PE Departure:
26L - 26R
Current PE ATIS:
Q
Altimeter:
Remarks:
ATIS:
124.4 909-596-1523
Clearance Delivery:
121.875
Ground:
125
Tower:
118.2
DESTINATION
,
Elevation:
TPA:
1000 (est.)


6762.1 NM74° True-14° Var59° HDG

Flight Plan:
(click to file on line)

1. Type
2. Aircraft Identification
3. Aircraft Type / Special Equipment
4. True Airspeed
kts
5. Departure Airport
(ICAO code)
6. Arriving Airport
(ICAO code)
7. Cruising Altitude
ft
8. Alternate Airport
(ICAO code)
9. Route of Flight
10. Remarks


00:00:00 Departure ATIS: Destination ATIS:

Clearance Limit:
Route:
Altitude: Expect in minutes
Frequency:
Transponder: (7500 Hijack / 7600 Lost Comms / 7700 Emergency)


KPOC 211547Z VRB06KT 10SM CLR 26/13 A3010
Time: 2021-09-21T15:47:00Z
1632241347
Winds: variable
Visibility: 10.0 sm
Clouds (AGL): CLR
Temperature: 26.0 C
Dew Point: 13.0 C
Pressure: 30.100393 in Hgbr


Notes:

Data extracted from FAA Digital Chart Supplement. Effective: 0901Z Thursday, AUG 12, 2021 to 0901Z Thursday, OCT 7, 2021
Current ATIS data is provided courtisy of PilotEdge.